Regional Weather Roundup
Issued by NWS Spokane, WA

Home | Current Version | Previous Version | Text Only | Print | Product List | Glossary On
Versions: 1 2 3 4 5 6 7 8 9 10 11 12 13 14 15 16 17 18 19 20 21 22 23 24 25 26 27 28 29 30 31 32 33 34 35 36 37 38 39 40 41 42 43 44 45 46 47 48 49 50
000
NZUS01 KOTX 260305
RWROTX
EASTERN WASHINGTON/NORTHERN IDAHO ROUNDUP
NATIONAL WEATHER SERVICE, SPOKANE WA
700 PM PST TUE NOV 25 2014

Note: "fair" indicated few or no clouds below 12,000 feet with no
significant weather and/or obstructions to visibility.

...NORTHEAST WASHINGTON AND NORTHERN IDAHO PANHANDLE...

CITY           SKY/WX    TMP DP  RH WIND       PRES   REMARKS
SPOKANE INTL   FOG       34  34 100 N7        30.17F VSB 1/2 WCI  28
SPOKANE DOWNTO CLOUDY    36  33  89 CALM      30.21S
COEUR D ALENE  MOCLDY    34  32  93 CALM      30.18S
DEER PARK      CLOUDY    33  32  96 CALM      30.20S
SANDPOINT      LGT RAIN  34  34 100 S3        30.19S

...SOUTHEAST WASHINGTON AND SOUTHERN IDAHO PANHANDLE...

CITY           SKY/WX    TMP DP  RH WIND       PRES   REMARKS
WALLA WALLA    FOG       43  42  97 SW9       30.20F VSB<1/4
PULLMAN/MOSCOW LGT RAIN  39  37  92 E9        30.15F FOG
LEWISTON       LGT RAIN  43  42  97 E5        30.17F
LOWELL           N/A     36  34  92 VRB5      30.22R

...COLUMBIA BASIN...

CITY           SKY/WX    TMP DP  RH WIND       PRES   REMARKS
EPHRATA        LGT RAIN  37  36  96 N8        30.23S FOG
MOSES LAKE     CLOUDY    37  36  96 N8        30.23F FOG
TRI CITIES     CLOUDY    43  42  97 NW9       30.24F
HERMISTON      CLOUDY    46  41  82 E8        30.20S
PENDLETON      CLOUDY    53  47  79 W15       30.19R

...EAST SLOPES CASCADES...

CITY           SKY/WX    TMP DP  RH WIND       PRES   REMARKS
THE DALLES     CLOUDY    60  50  69 NW6       30.21F
YAKIMA         PTCLDY    42  37  82 SW6       30.20S
ELLENSBURG     CLOUDY    41  35  79 SE8       30.19S
WENATCHEE      CLOUDY    39  36  89 CALM      30.24S FOG
OMAK           LGT SNOW  32  31  96 CALM      30.26F VSB 1

...SOUTHERN BRITISH COLUMBIA...

CITY           SKY/WX    TMP DP  RH WIND       PRES   REMARKS

...WESTERN MONTANA...

CITY           SKY/WX    TMP DP  RH WIND       PRES   REMARKS
MISSOULA       LGT SNOW  32  32 100 CALM      30.18S FOG

...NEIGHBORING CITIES...

CITY           SKY/WX    TMP DP  RH WIND       PRES   REMARKS
SEATTLE        CLOUDY    56  53  90 S15       30.17S



USA.gov is the U.S. government's official web portal to all federal, state and local government web resources and services.